EA3EH-1 Weather Reports


Display with metric or nautical units.
time (UTC)temp
F
wind
direction
speed
MPH
gust
MPH
rain 1hr
in
rain 24hr
in
rain mn
in
humidity
%
barometer
mb
20260507203147 56 327 2.0 0.0 0.00 0.00 0.00 48 1010.0
20260507202148 57 327 0.0 0.0 0.00 0.00 0.00 49 1010.0
20260507200648 57 327 3.0 2.0 0.00 0.00 0.00 47 1010.0
20260507195645 57 327 0.0 0.0 0.00 0.00 0.00 46 1010.0
20260507195147 58 327 0.0 0.0 0.00 0.00 0.00 45 1010.0
20260507194645 58 327 0.0 0.0 0.00 0.00 0.00 45 1010.0
20260507191649 60 327 0.0 0.0 0.00 0.00 0.00 38 1010.0
20260507190647 61 327 0.0 0.0 0.00 0.00 0.00 37 1010.0
20260507190145 61 327 0.0 0.0 0.00 0.00 0.00 37 1010.0
20260507185645 61 327 0.0 0.0 0.00 0.00 0.00 36 1010.0
20260507185145 61 327 0.0 0.0 0.00 0.00 0.00 35 1009.0
20260507183145 63 327 0.0 0.0 0.00 0.00 0.00 29 1009.0
20260507181146 64 329 0.0 3.0 0.00 0.00 0.00 26 1009.0
20260507180145 64 328 0.0 0.0 0.00 0.00 0.00 25 1009.0
20260507174145 65 313 0.0 0.0 0.00 0.00 0.00 24 1009.0
20260507172647 66 266 0.0 3.0 0.00 0.00 0.00 22 1009.0
20260507171645 67 42 0.0 5.0 0.00 0.00 0.00 17 1009.0
20260507171145 69 267 0.0 2.0 0.00 0.00 0.00 17 1009.0
20260507170146 72 221 0.0 0.0 0.00 0.00 0.00 14 1009.0
20260507164646 72 124 2.0 0.0 0.00 0.00 0.00 13 1009.0
20260507164145 73 292 0.0 0.0 0.00 0.00 0.00 16 1009.0
20260507163645 71 247 3.0 0.0 0.00 0.00 0.00 16 1009.0
20260507163145 71 65 2.0 0.0 0.00 0.00 0.00 19 1009.0
20260507162145 69 160 3.0 0.0 0.00 0.00 0.00 17 1009.0
20260507161648 71 201 0.0 3.0 0.00 0.00 0.00 14 1009.0
20260507161147 72 346 3.0 0.0 0.00 0.00 0.00 13 1009.0
20260507160647 75 203 2.0 2.0 0.00 0.00 0.00 13 1009.0
20260507160147 77 102 0.0 2.0 0.00 0.00 0.00 13 1009.0
20260507155646 74 232 0.0 0.0 0.00 0.00 0.00 13 1009.0
20260507155145 76 298 3.0 0.0 0.00 0.00 0.00 13 1008.0
20260507153645 74 41 3.0 3.0 0.00 0.00 0.00 13 1008.0
20260507153146 76 220 3.0 3.0 0.00 0.00 0.00 13 1008.0
20260507151145 75 208 3.0 0.0 0.00 0.00 0.00 13 1008.0
20260507145649 76 324 3.0 4.0 0.00 0.00 0.00 13 1008.0
20260507145147 77 149 3.0 3.0 0.00 0.00 0.00 13 1008.0
20260507144147 77 208 3.0 3.0 0.00 0.00 0.00 13 1008.0
20260507142145 73 54 4.0 3.0 0.00 0.00 0.00 13 1008.0
20260507141145 73 130 4.0 2.0 0.00 0.00 0.00 16 1008.0
20260507135648 74 188 2.0 6.0 0.00 0.00 0.00 16 1008.0
20260507134146 69 356 3.0 5.0 0.00 0.00 0.00 22 1009.0
20260507132645 69 291 3.0 4.0 0.00 0.00 0.00 22 1009.0
20260507131145 70 169 4.0 0.0 0.00 0.00 0.00 22 1009.0
20260507130146 72 111 3.0 6.0 0.00 0.00 0.00 18 1009.0
20260507125645 73 206 3.0 3.0 0.00 0.00 0.00 16 1009.0
20260507124648 75 261 3.0 0.0 0.00 0.00 0.00 13 1009.0
20260507123648 76 98 3.0 0.0 0.00 0.00 0.00 15 1009.0
20260507122645 74 240 3.0 5.0 0.00 0.00 0.00 15 1009.0
20260507121645 73 134 3.0 4.0 0.00 0.00 0.00 18 1009.0
20260507121146 73 68 3.0 3.0 0.00 0.00 0.00 18 1009.0
20260507120647 73 158 3.0 0.0 0.00 0.00 0.00 21 1009.0
20260507120145 72 102 3.0 0.0 0.00 0.00 0.00 21 1009.0
20260507115645 71 223 3.0 0.0 0.00 0.00 0.00 21 1009.0
20260507114146 71 63 3.0 0.0 0.00 0.00 0.00 19 1009.0
20260507113648 72 201 2.0 0.0 0.00 0.00 0.00 21 1009.0
20260507112145 70 183 3.0 0.0 0.00 0.00 0.00 22 1010.0
20260507111145 69 149 2.0 0.0 0.00 0.00 0.00 24 1010.0
20260507110645 69 44 0.0 2.0 0.00 0.00 0.00 24 1010.0
20260507104145 67 131 0.0 4.0 0.00 0.00 0.00 28 1010.0
20260507103645 67 104 0.0 0.0 0.00 0.00 0.00 30 1010.0
20260507102645 67 302 0.0 2.0 0.00 0.00 0.00 32 1010.0
20260507102145 66 10 3.0 0.0 0.00 0.00 0.00 32 1010.0
20260507101645 66 212 0.0 0.0 0.00 0.00 0.00 33 1010.0
20260507100146 65 86 0.0 0.0 0.00 0.00 0.00 33 1010.0
20260507094650 64 64 0.0 0.0 0.00 0.00 0.00 35 1010.0
20260507093145 63 95 2.0 0.0 0.00 0.00 0.00 37 1010.0
20260507092644 63 109 2.0 2.0 0.00 0.00 0.00 36 1010.0
20260507091646 62 80 2.0 0.0 0.00 0.00 0.00 37 1010.0
20260507091145 62 112 0.0 0.0 0.00 0.00 0.00 38 1010.0
20260507090645 62 73 2.0 0.0 0.00 0.00 0.00 40 1010.0
20260507085645 61 332 0.0 0.0 0.00 0.00 0.00 42 1010.0
20260507085145 60 33 3.0 0.0 0.00 0.00 0.00 44 1010.0
20260507084645 60 116 0.0 2.0 0.00 0.00 0.00 44 1010.0
20260507084145 60 71 0.0 0.0 0.00 0.00 0.00 45 1010.0
20260507082651 58 193 0.0 2.0 0.00 0.00 0.00 49 1010.0
20260507081645 57 195 0.0 0.0 0.00 0.00 0.00 52 1010.0
20260507081145 57 196 0.0 3.0 0.00 0.00 0.00 55 1010.0
20260507080645 57 196 0.0 0.0 0.00 0.00 0.00 58 1011.0
20260507080145 56 196 0.0 0.0 0.00 0.00 0.00 62 1011.0
20260507074647 55 196 0.0 0.0 0.00 0.00 0.00 66 1011.0
20260507070148 52 205 0.0 0.0 0.00 0.00 0.00 75 1011.0
20260507063647 51 213 4.0 3.0 0.00 0.00 0.00 79 1010.0
20260507061646 50 254 0.0 0.0 0.00 0.00 0.00 79 1010.0
20260507060148 50 301 2.0 3.0 0.00 0.00 0.00 80 1010.0
20260507051147 47 293 0.0 0.0 0.00 0.00 0.00 80 1010.0
20260507045647 48 288 3.0 3.0 0.00 0.00 0.00 81 1010.0
20260507045151 48 279 0.0 0.0 0.00 0.00 0.00 81 1010.0
20260507044646 48 305 2.0 0.0 0.00 0.00 0.00 80 1010.0
20260507044146 48 285 0.0 0.0 0.00 0.00 0.00 80 1010.0
20260507043648 48 305 0.0 0.0 0.00 0.00 0.00 80 1010.0
20260507042146 47 286 2.0 3.0 0.00 0.00 0.00 79 1010.0
20260507041647 47 263 2.0 0.0 0.00 0.00 0.00 80 1010.0
20260507034147 48 254 3.0 4.0 0.00 0.00 0.00 80 1010.0
20260507031647 49 291 3.0 0.0 0.00 0.00 0.00 80 1010.0
20260507025148 50 275 0.0 0.0 0.00 0.00 0.00 80 1010.0
20260507024647 50 276 0.0 0.0 0.00 0.00 0.00 80 1010.0
20260507023149 50 277 2.0 0.0 0.00 0.00 0.00 80 1010.0
20260507021146 50 276 3.0 0.0 0.00 0.00 0.00 79 1010.0
20260507015646 51 272 0.0 0.0 0.00 0.00 0.00 79 1010.0
20260507014647 51 272 0.0 0.0 0.00 0.00 0.00 78 1010.0
20260507014148 51 272 0.0 0.0 0.00 0.00 0.00 77 1010.0
20260507013649 51 271 0.0 0.0 0.00 0.00 0.00 76 1010.0
20260507012149 52 271 0.0 0.0 0.00 0.00 0.00 76 1011.0
20260507010647 52 265 0.0 3.0 0.00 0.00 0.00 75 1011.0
20260507005147 53 258 3.0 0.0 0.00 0.00 0.00 74 1011.0
20260507002149 53 300 0.0 0.0 0.00 0.00 0.00 72 1011.0
20260507001147 53 268 0.0 0.0 0.00 0.00 0.00 70 1011.0
20260506235645 53 221 2.0 2.0 0.00 0.00 0.00 70 1011.0
20260506235148 53 220 0.0 0.0 0.00 0.00 0.00 69 1011.0
20260506231148 55 212 3.0 3.0 0.00 0.00 0.00 65 1011.0
20260506230645 55 274 0.0 0.0 0.00 0.00 0.00 66 1011.0
20260506230147 54 206 3.0 4.0 0.00 0.00 0.00 68 1011.0
20260506225649 55 274 2.0 0.0 0.00 0.00 0.00 69 1011.0
20260506224147 55 351 0.0 0.0 0.00 0.00 0.00 69 1011.0
20260506223645 55 351 0.0 0.0 0.00 0.00 0.00 69 1011.0
20260506223148 55 351 0.0 0.0 0.00 0.00 0.00 69 1011.0
20260506222645 55 351 0.0 0.0 0.00 0.00 0.00 68 1011.0
20260506222145 55 293 0.0 0.0 0.00 0.00 0.00 69 1011.0
20260506215645 55 329 0.0 0.0 0.00 0.00 0.00 70 1011.0
20260506213646 55 322 0.0 0.0 0.00 0.00 0.00 69 1011.0
20260506210645 56 44 0.0 0.0 0.00 0.00 0.00 67 1011.0
20260506210145 56 44 0.0 0.0 0.00 0.00 0.00 67 1011.0
20260506204645 56 45 0.0 0.0 0.00 0.00 0.00 66 1011.0
20260506203645 56 44 0.0 0.0 0.00 0.00 0.00 65 1011.0